Presure
163 169 160 160 157 149 157 157 150 150 146 144 143 143 142 141 143 154 155 144 149 152 154 150 141 159 151 158 153 152 160 148 156 171 179 180 175 143 165 164 168 180 183
140 174 157 153 148 156 159 158 158 155 155 157 155 153 154 152 151 153 151 142 148 146 150 161 153 159 156 157 157 159 158 167 174 169 187 168 167 171 160 178 190 191 204
179 171 161 151 159 152 148 150 159 161 160 160 154 152 151 154 152 151 153 154 154 151 148 149 146 148 157 137 155 151 160 173 176 184 184 177 173 174 176 187 193 203 210
181 183 173 160 158 163 158 156 155 152 151 151 150 148 148 150 149 149 150 155 142 142 147 145 148 151 146 148 160 172 171 179 177 174 158 187 185 195 187 193 212 207 248
166 181 184 170 167 170 152 159 137 151 151 134 155 159 161 151 156 158 148 140 145 148 141 150 142 151 162 165 169 180 176 162 174 162 183 176 191 191 207 213 215 260 293
183 171 178 183 178 173 170 168 166 165 163 159 161 160 126 127 132 127 134 143 158 159 162 160 145 162 171 177 175 165 168 159 171 176 182 195 201 208 213 247 263 302 291
151 143 172 171 185 185 173 171 169 165 161 161 161 160 158 151 152 156 158 161 167 168 169 168 170 156 179 177 155 159 165 175 188 188 197 204 218 225 222 265 297 284 289
168 160 140 141 173 174 182 178 171 162 162 167 168 165 163 165 165 164 166 167 169 171 172 166 179 179 178 189 164 184 187 187 190 203 193 211 246 212 257 282 278 285 270
197 180 174 146 178 178 176 175 180 182 181 176 173 174 174 173 173 173 173 174 177 177 178 180 181 183 180 187 188 184 189 173 197 201 205 216 240 257 266 275 279 270 258
214 189 183 182 179 181 183 182 180 180 179 175 172 171 171 171 175 177 178 174 172 165 179 182 182 184 182 180 189 191 191 203 195 201 240 248 255 259 279 258 267 253 247
251 264 219 181 181 180 182 184 186 185 181 181 182 181 181 179 179 180 179 184 183 180 180 179 174 166 191 183 184 202 191 193 230 253 241 253 255 281 258 273 252 240 235
253 244 249 257 193 186 182 186 185 183 186 187 187 187 188 187 188 188 187 188 189 186 184 190 191 156 181 199 201 190 204 248 247 253 248 256 284 263 269 256 241 230 221
247 243 243 245 250 251 247 218 192 188 189 189 189 188 189 190 165 184 185 188 188 185 190 196 195 199 201 206 206 256 255 239 248 242 253 269 266 250 261 250 237 230 221
233 234 239 245 247 240 240 234 246 254 251 226 214 202 199 194 194 195 193 193 190 195 200 202 207 210 221 239 239 262 249 244 243 249 281 267 253 268 260 244 234 234 233
246 245 236 237 233 235 228 243 244 248 246 235 234 240 244 240 244 246 247 243 242 222 223 239 245 240 256 253 253 250 245 244 247 280 262 269 257 262 245 230 245 237 235
335 301 324 303 262 248 247 246 246 242 242 282 268 262 243 241 234 236 235 244 265 254 253 241 269 262 254 247 245 241 243 261 269 260 253 246 271 256 233 235 245 246 236
293 298 309 282 283 286 291 289 291 278 271 268 265 262 259 249 275 266 266 249 270 251 258 264 255 248 245 242 245 252 283 271 262 259 253 264 238 235 232 237 243 245 240
313 296 298 287 276 278 279 279 280 290 294 291 286 282 268 255 246 260 262 244 255 263 253 242 247 241 241 246 277 273 267 253 253 253 248 239 223 226 230 234 241 239 244
275 284 289 278 279 279 281 278 278 274 272 274 279 268 261 257 246 265 255 252 250 239 241 242 239 245 281 282 271 257 257 243 252 249 230 214 203 218 229 234 237 237 240
289 312 281 265 270 264 281 277 265 247 243 273 277 279 264 252 245 251 237 236 240 247 241 241 256 275 272 257 251 254 251 248 248 231 214 207 209 235 235 237 244 246 235
271 272 287 298 269 282 267 261 253 264 256 245 250 261 238 244 250 239 233 233 232 239 255 265 265 258 254 253 244 256 251 245 241 228 212 223 227 236 238 239 230 205 197
262 262 262 267 267 269 269 271 277 271 273 259 248 249 248 237 247 239 243 249 252 267 262 257 248 263 251 246 240 280 265 260 236 229 225 220 232 236 236 238 239 230 242
267 277 280 261 260 259 266 263 273 265 262 262 262 248 248 229 236 249 239 248 254 256 256 245 265 247 244 239 230 290 296 299 250 227 218 248 249 232 242 250 254 253 248
256 250 258 276 275 269 268 263 260 266 256 249 249 249 248 246 235 235 251 245 249 247 238 261 248 238 234 230 269 227 264 268 270 264 259 257 258 257 254 258 256 251 246
255 254 252 243 259 258 258 259 253 244 241 239 238 233 230 241 244 241 245 244 241 229 245 242 236 236 254 254 262 262 256 251 252 256 259 254 193 256 256 241 242 240 234
267 261 260 244 243 251 251 252 246 244 238 235 238 241 237 235 232 245 242 239 222 240 240 242 257 250 253 257 258 258 256 255 253 249 243 232 239 237 235 226 219 227 227
Wind_Speed
87 95 87 84 81 71 80 82 75 74 66 64 66 67 67 65 67 80 81 64 73 79 83 79 69 88 79 92 86 83 99 85 95 109 107 106 102 77 98 95 99 107 109
56 98 84 79 68 77 84 84 84 81 80 82 81 79 79 77 77 80 77 61 69 68 76 87 79 91 93 92 93 97 99 109 112 103 108 99 102 104 96 106 112 114 122
98 97 86 76 88 78 72 72 82 85 83 83 78 78 79 82 80 75 77 79 79 74 73 76 73 80 95 77 94 86 97 109 110 110 110 104 102 104 109 114 117 124 124
97 100 99 86 90 99 90 84 80 74 73 73 73 73 73 75 72 74 76 84 64 68 75 73 80 87 82 90 108 114 110 108 108 107 92 116 110 116 110 118 127 122 112
88 96 98 99 97 99 76 86 64 78 76 64 86 88 90 82 88 91 76 67 72 81 75 90 79 93 105 109 110 112 107 101 107 99 113 107 118 115 123 122 124 106 91
96 93 98 101 102 101 99 99 99 99 97 93 94 94 66 66 67 67 68 76 93 97 101 99 80 102 109 109 106 102 103 98 107 109 113 122 124 126 127 112 103 84 83
81 76 96 96 102 103 102 100 100 97 93 93 94 95 94 85 88 95 97 100 105 105 107 109 110 90 113 107 90 96 103 107 118 118 123 126 130 129 124 102 87 85 78
92 89 76 76 99 100 103 104 103 95 94 100 101 100 99 102 103 103 104 105 105 105 106 102 111 111 108 114 100 110 112 113 118 126 117 129 110 125 102 94 86 77 79
110 103 98 81 102 101 100 100 103 103 104 104 103 103 104 103 104 104 105 106 106 106 106 107 108 110 107 112 113 110 116 101 121 124 125 127 110 98 98 82 77 77 78
110 107 104 103 99 102 103 102 100 101 101 100 98 98 98 98 102 103 104 100 99 94 105 108 107 109 107 106 114 116 116 124 118 123 111 103 97 96 77 80 73 75 76
96 97 108 101 102 99 100 103 105 105 101 101 103 102 103 102 102 103 103 106 107 103 104 105 99 95 117 108 110 125 114 117 110 95 105 94 94 75 77 68 70 72 74
92 93 90 89 112 106 99 104 104 100 105 107 107 107 108 107 109 108 107 109 111 107 108 115 117 85 104 125 124 113 126 102 99 88 91 90 73 73 67 65 67 69 71
92 90 86 87 87 89 94 114 109 105 105 105 105 106 108 109 92 103 106 109 109 108 115 122 120 124 124 127 123 97 94 102 90 90 90 79 69 71 63 62 64 65 68
86 83 85 88 89 92 94 101 95 93 96 110 116 118 116 112 113 118 116 117 114 119 124 124 126 125 120 111 108 80 90 88 89 90 75 70 68 61 59 59 61 63 62
109 103 89 89 91 91 98 92 95 99 101 104 104 102 100 101 99 101 102 106 107 121 121 110 105 107 94 90 82 84 86 87 88 70 68 63 64 58 57 60 60 61 61
54 66 62 71 113 110 108 105 101 95 98 87 106 107 98 99 97 95 100 104 99 100 98 99 76 78 77 82 83 85 85 81 67 66 65 64 57 56 59 60 60 59 60
59 57 57 73 73 71 71 74 73 83 85 87 89 93 98 87 81 85 85 91 76 88 79 71 71 75 78 80 82 83 64 63 62 61 61 58 56 57 58 59 59 58 59
46 56 56 63 69 70 73 73 71 63 54 52 52 53 63 73 84 79 72 82 72 64 65 73 73 76 79 78 68 63 59 59 59 58 55 55 58 59 59 59 59 59 58
56 55 53 60 64 63 58 61 62 66 66 59 52 54 64 67 73 51 56 58 60 69 69 70 74 76 67 63 59 58 56 58 57 55 53 58 61 63 60 59 61 60 59
35 47 61 62 62 64 56 59 63 68 66 57 49 46 47 51 56 54 62 65 65 66 69 74 73 60 58 56 56 57 57 56 55 53 57 60 61 60 59 59 60 59 61
43 43 35 37 55 66 68 68 65 53 52 63 59 49 59 57 55 59 63 65 68 70 70 58 55 55 55 54 55 54 54 53 53 54 58 59 60 60 60 60 60 63 63
46 45 45 43 43 43 44 47 55 62 58 58 58 57 56 60 55 60 64 63 66 59 56 51 53 49 52 52 52 49 51 52 53 55 57 58 60 61 62 62 62 65 63
46 42 47 48 46 44 44 45 48 45 43 45 58 58 55 61 63 61 58 59 55 51 50 50 47 49 50 50 51 40 39 41 51 56 57 58 59 63 63 62 61 61 62
45 41 40 39 45 47 42 39 37 35 38 42 46 50 52 53 54 57 56 53 49 49 49 49 43 49 50 52 42 52 44 43 44 48 51 53 55 57 57 57 58 60 63
47 45 43 42 38 37 38 40 40 40 41 43 45 49 52 51 50 52 51 48 48 46 46 43 45 49 45 45 41 42 43 45 46 47 48 52 62 54 55 60 61 63 66
50 53 50 46 44 42 42 42 43 44 47 49 50 51 51 50 52 50 48 48 45 48 44 42 43 41 41 40 39 40 41 42 44 47 51 55 55 57 60 64 68 69 72
Wind_Direction
234 232 238 240 241 244 247 249 252 254 258 259 261 264 266 269 272 272 273 278 279 279 281 287 290 288 297 298 301 301 302 298 300 303 304 306 303 301 302 305 305 305 306
238 231 240 244 248 246 245 247 250 254 255 257 260 263 264 266 268 269 273 281 286 287 289 286 294 295 299 299 301 301 300 300 301 300 306 300 300 301 303 303 306 307 309
234 237 238 244 246 251 251 253 251 250 253 255 261 265 268 268 272 277 278 281 286 289 289 292 293 293 296 290 299 296 297 299 300 303 302 299 299 301 303 306 308 309 309
234 235 237 242 244 247 251 255 259 261 264 265 266 267 271 274 276 280 281 284 279 283 291 289 291 294 296 295 295 295 296 300 299 298 300 301 301 303 304 306 308 308 306
242 240 239 242 245 245 253 255 250 261 263 254 266 268 269 271 273 275 278 276 282 285 284 287 287 290 289 289 291 295 296 293 295 297 298 299 303 303 306 306 308 306 306
237 240 242 243 244 246 247 249 252 256 258 263 265 267 262 264 267 268 268 274 281 281 282 285 283 286 288 291 290 289 292 296 294 297 299 302 302 304 306 307 306 307 305
240 242 240 245 245 246 247 250 252 254 257 260 262 264 267 270 273 275 277 279 280 282 283 283 285 289 289 290 292 293 292 294 298 298 300 302 305 305 307 307 308 307 307
236 239 242 244 244 246 247 249 251 255 258 259 261 263 265 267 269 271 273 274 276 278 280 283 284 284 286 290 289 293 294 296 298 300 301 304 305 307 307 310 307 308 309
235 238 241 245 244 246 248 249 251 252 254 256 259 262 264 266 267 269 271 273 274 276 278 280 283 286 286 290 292 293 296 297 299 301 302 304 305 307 309 307 308 309 310
238 237 241 243 245 247 249 251 253 254 255 257 259 261 263 265 267 269 271 273 275 277 280 282 284 286 288 289 292 294 295 298 299 300 302 302 305 307 307 307 307 309 311
244 247 242 244 246 249 251 253 254 256 258 260 261 263 264 266 268 270 273 275 277 278 281 282 284 284 287 290 291 295 296 298 299 300 300 304 306 306 305 306 306 308 311
246 245 247 250 244 247 250 253 255 257 259 260 263 265 267 269 270 273 275 277 278 280 281 283 285 287 288 290 293 294 295 298 298 300 300 305 304 302 304 304 304 307 309
250 244 246 249 250 251 252 250 254 257 259 261 262 264 266 269 270 273 275 277 278 279 282 283 285 286 288 290 291 297 297 296 297 298 301 303 300 301 301 301 303 306 309
245 245 247 252 251 249 249 251 256 259 259 259 260 263 266 269 271 272 274 276 277 279 280 282 284 285 287 290 292 293 294 294 298 299 299 299 298 299 300 301 303 304 306
251 254 251 249 247 251 251 259 258 261 260 258 261 265 267 267 269 272 274 275 277 276 278 284 286 287 291 291 292 292 292 296 298 295 297 297 297 298 298 302 302 303 306
236 237 243 241 251 255 258 259 260 262 264 262 266 267 265 266 269 273 274 279 281 283 285 284 284 288 289 289 289 291 294 295 292 293 295 296 298 294 297 300 302 303 304
234 238 238 243 246 248 249 252 252 256 259 261 262 265 269 267 272 273 276 278 278 281 281 283 286 286 287 288 290 293 290 290 291 292 293 295 292 295 297 299 301 303 305
229 232 236 239 243 247 250 252 256 260 260 258 254 255 263 267 272 274 271 276 277 280 282 282 284 286 287 290 291 289 287 288 288 290 291 290 291 294 295 299 302 303 304
240 233 230 237 240 245 248 251 252 255 255 258 256 261 267 270 271 271 272 276 279 280 282 284 285 288 290 288 286 287 285 285 287 287 286 288 292 294 296 299 299 301 303
243 233 240 246 246 249 239 243 250 260 262 262 259 258 269 270 272 273 273 277 279 282 283 285 288 288 288 286 286 286 284 284 285 284 285 289 292 294 296 298 300 301 302
242 246 244 241 247 240 248 252 255 252 255 263 265 262 268 271 269 272 276 279 281 283 285 289 290 288 287 285 285 288 284 284 285 285 286 290 293 295 296 297 299 301 303
246 245 247 246 246 244 246 248 250 252 257 252 259 264 267 269 272 275 280 279 280 283 287 289 289 293 287 285 287 290 287 287 285 286 287 290 292 293 293 295 297 298 299
249 242 240 247 248 248 247 250 248 249 251 255 254 259 261 269 273 276 278 280 280 286 291 291 296 287 287 287 289 295 292 287 286 287 289 288 290 292 295 296 297 298 300
249 251 251 247 247 247 247 248 248 247 246 251 255 258 261 265 270 274 276 278 283 288 290 300 291 286 287 288 296 291 293 292 292 291 290 291 292 292 294 297 300 300 300
245 247 251 253 249 247 248 247 248 251 252 255 258 261 264 269 270 273 275 277 282 285 294 293 288 289 297 297 298 296 294 295 295 296 295 294 295 298 300 299 299 301 301
242 247 249 250 253 253 253 252 250 251 251 254 259 260 263 266 270 270 272 276 280 289 291 293 299 297 300 300 302 302 301 299 298 297 297 298 301 300 299 299 301 299 300